Location: Newark
(23.5328°S, 46.7919°W)
Time: 01:05:10
(UTC+00:00)

ISS - Pass Details

Date: 09 March 2021
Orbit: 418 x 422 km, 51.6° (Epoch: 13 April)

Event Time Altitude Azimuth Distance (km) Brightness Sun altitude
Rises 21:51:53 0° 216° (SW) 2,392 0.8 -6.2°
Reaches altitude 10° 21:54:02 10° 212° (SSW) 1,520 -0.3 -6.7°
Maximum altitude 21:57:24 58° 131° (SE) 501 -3.6 -7.4°
Drops below altitude 10° 22:00:44 10° 51° (NE) 1,501 -1.5 -8.2°
Enters shadow 22:01:12 - 50° (NE) 1,689 -1.2 -8.3°
